Weather History for Westfield, MA

Change the Weather History Date:

Thursday, December 26, 2013

  Actual Average Record
Temperature  
Mean Temperature 24 °F -  
Max Temperature 30 °F 34 °F 46 °F (1973)
Min Temperature 19 °F 19 °F 6 °F (2000)
Degree Days  
Heating Degree Days 40    
Moisture  
Dew Point 17 °F    
Average Humidity 76    
Maximum Humidity 88    
Minimum Humidity 57    
Precipitation  
Precipitation 0.04 in - - ()
Sea Level Pressure  
Sea Level Pressure 30.27 in    
Wind  
Wind Speed 2 mph (NW)    
Max Wind Speed 7 mph    
Max Gust Speed -    
Visibility 7 miles    
Events Fog , Snow    
Averages and records for this station are not official NWS values.
T = Trace of Precipitation, MM = Missing Value Source: NWS Daily Summary

Daily Weather History Graph

Daily Weather History Graph

Search for Another Location

Airport:

Trip Planner

Search our weather history database for the weather conditions in past years. The results will help you decide how hot, cold, wet, or windy it might be!

Date:

Astronomy

Dec. 26, 2013 Rise Set
Actual Time 7:18 AM EST 4:25 PM EST
Civil Twilight 6:46 AM EST 4:56 PM EST
Nautical Twilight 6:11 AM EST 5:32 PM EST
Astronomical Twilight 5:36 AM EST 6:06 PM EST
Moon 12:39 AM EST (12/26) 12:03 PM EST (12/26)
Length of Visible Light 10h 10m
Length of Day
9h 06m
Last Quarter, 38% of the Moon is Illuminated
Dec 26
Last Quarter
Jan 1
New
Jan 7
First Quarter
Jan 15
Full
Jan 24
Last Quarter

Hourly Weather History & Observations

Time (EST) Temp. Windchill Dew Point Humidity Pressure Visibility Wind Dir Wind Speed Gust Speed Precip Events Conditions
12:53 AM 19.0 °F - 10.9 °F 71% 30.46 in 10.0 mi Calm Calm - N/A   Overcast
1:53 AM 19.9 °F - 12.0 °F 71% 30.47 in 10.0 mi Calm Calm - N/A   Overcast
2:01 AM 21.0 °F - 12.0 °F 68% 30.44 in 10.0 mi Calm Calm - N/A   Overcast
2:27 AM 21.0 °F - 8.1 °F 57% 30.43 in 10.0 mi Calm Calm - N/A   Overcast
2:53 AM 21.9 °F 17.2 °F 9.0 °F 58% 30.45 in 10.0 mi NNE 3.5 mph - N/A   Overcast
3:53 AM 21.0 °F 16.2 °F 10.0 °F 63% 30.42 in 10.0 mi NNE 3.5 mph - N/A   Overcast
4:53 AM 21.0 °F 13.4 °F 10.0 °F 63% 30.39 in 10.0 mi North 5.8 mph - N/A   Overcast
5:53 AM 21.0 °F 13.4 °F 10.0 °F 63% 30.38 in 10.0 mi North 5.8 mph - N/A   Mostly Cloudy
6:53 AM 21.0 °F 16.2 °F 10.0 °F 63% 30.36 in 10.0 mi North 3.5 mph - N/A   Overcast
7:53 AM 21.9 °F 15.7 °F 10.0 °F 60% 30.35 in 10.0 mi North 4.6 mph - N/A   Overcast
8:53 AM 23.0 °F 18.4 °F 12.0 °F 63% 30.34 in 5.0 mi North 3.5 mph - 0.00 in Snow Light Snow
9:14 AM 23.0 °F 18.4 °F 14.0 °F 68% 30.30 in 2.5 mi North 3.5 mph - 0.00 in Snow Light Snow
9:20 AM 23.0 °F 18.4 °F 14.0 °F 68% 30.30 in 3.0 mi North 3.5 mph - 0.00 in Snow Light Snow
9:34 AM 23.0 °F - 15.1 °F 72% 30.30 in 8.0 mi Calm Calm - 0.00 in   Overcast
9:53 AM 24.1 °F - 15.1 °F 69% 30.31 in 10.0 mi Calm Calm - 0.00 in   Overcast
10:05 AM 24.1 °F - 16.0 °F 71% 30.27 in 10.0 mi Calm Calm - N/A   Overcast
10:53 AM 25.0 °F - 17.1 °F 72% 30.25 in 2.5 mi Calm Calm - 0.00 in Snow Light Snow
11:26 AM 25.0 °F 20.7 °F 19.0 °F 78% 30.20 in 3.0 mi WNW 3.5 mph - 0.00 in Snow Light Snow
11:36 AM 25.0 °F 20.7 °F 19.0 °F 78% 30.20 in 1.8 mi NW 3.5 mph - 0.00 in Snow Light Snow
11:42 AM 25.0 °F 19.3 °F 19.9 °F 81% 30.20 in 0.8 mi WNW 4.6 mph - 0.00 in Snow Light Snow
11:53 AM 25.0 °F 18.1 °F 19.9 °F 81% 30.22 in 0.5 mi West 5.8 mph - 0.01 in Snow Snow
12:01 PM 25.0 °F - 21.9 °F 88% 30.18 in 0.2 mi Calm Calm - 0.00 in Fog , Snow Snow
12:14 PM 25.0 °F 20.7 °F 21.0 °F 85% 30.18 in 0.5 mi West 3.5 mph - 0.01 in Fog , Snow Light Snow
12:31 PM 26.1 °F - 21.9 °F 84% 30.16 in 1.0 mi Calm Calm - 0.02 in Snow Light Snow
12:45 PM 26.1 °F - 23.0 °F 88% 30.15 in 0.8 mi Calm Calm - 0.02 in Snow Light Snow
12:53 PM 26.1 °F - 23.0 °F 88% 30.17 in 1.5 mi Calm Calm - 0.02 in Snow Light Snow
1:35 PM 28.0 °F 22.8 °F 25.0 °F 88% 30.12 in 7.0 mi South 4.6 mph - 0.01 in Snow Light Snow
1:53 PM 28.9 °F 22.8 °F 25.0 °F 85% 30.13 in 7.0 mi South 5.8 mph - 0.01 in   Overcast
2:53 PM 30.0 °F 26.5 °F 25.0 °F 82% 30.13 in 9.0 mi SSW 3.5 mph - 0.00 in   Overcast
3:53 PM 30.9 °F 27.5 °F 25.0 °F 79% 30.14 in 10.0 mi Variable 3.5 mph - 0.00 in   Mostly Cloudy
4:53 PM 28.9 °F - 21.9 °F 75% 30.16 in 10.0 mi Calm Calm - N/A   Overcast
5:53 PM 27.0 °F 21.6 °F 21.0 °F 78% 30.19 in 10.0 mi South 4.6 mph - N/A   Mostly Cloudy
6:53 PM 25.0 °F - 21.0 °F 85% 30.22 in 10.0 mi Calm Calm - N/A   Scattered Clouds
7:53 PM 23.0 °F - 19.9 °F 88% 30.23 in 10.0 mi Calm Calm - N/A   Clear
8:53 PM 21.0 °F 16.2 °F 18.0 °F 88% 30.23 in 10.0 mi West 3.5 mph - N/A   Partly Cloudy
9:53 PM 23.0 °F 14.7 °F 19.0 °F 85% 30.24 in 10.0 mi South 6.9 mph - N/A   Clear
10:53 PM 19.0 °F - 15.1 °F 85% 30.25 in 10.0 mi Calm Calm - N/A   Clear
11:53 PM 21.9 °F 17.2 °F 17.1 °F 82% 30.24 in 10.0 mi Variable 3.5 mph - N/A   Clear